GFSFLT2_850_spd_102.txt.gz
Wind_Speed
7 11 9 14 15 14 9 7 6 7 6 9 9 9 15 20 30 33 37 32 26 24 24 25 24 24 22 19 18 17 18 15
14 9 12 13 12 16 12 13 12 7 8 2 10 10 13 19 30 31 29 33 30 26 24 21 25 24 21 18 16 15 16 15
8 14 14 12 12 10 13 14 12 12 7 6 5 7 11 18 25 27 33 34 32 31 23 21 22 22 29 17 14 14 15 15
13 7 4 8 17 16 10 15 10 13 0 4 5 5 7 13 19 22 23 28 26 34 31 28 26 23 22 24 14 11 15 16
9 9 8 11 11 13 14 14 14 15 10 5 7 8 8 11 14 17 20 22 26 23 26 29 30 30 32 26 27 20 13 16
7 2 6 17 11 12 15 12 13 12 14 8 8 8 11 13 13 16 17 18 22 23 22 22 24 31 33 32 36 28 22 17
8 6 3 8 7 11 14 18 17 14 15 12 10 10 12 12 12 13 15 17 18 18 18 20 22 22 32 27 20 25 20 21
10 3 6 9 9 8 11 14 15 16 13 5 7 12 14 13 12 13 14 15 16 15 16 18 20 22 25 26 22 21 22 22
14 8 9 12 14 7 5 7 10 15 7 3 8 10 13 13 12 10 11 11 13 15 16 17 18 21 24 26 21 17 17 16
11 3 14 4 4 1 7 6 6 10 6 7 8 8 9 11 11 10 10 14 14 16 17 20 20 21 21 23 20 20 18 15
4 12 5 7 6 6 6 2 5 8 2 5 11 14 6 8 9 9 12 13 12 13 13 15 16 15 17 18 20 21 17 18
4 5 10 12 7 8 4 6 13 6 5 13 15 8 6 8 10 11 13 14 15 15 16 14 14 17 22 27 25 25 21 15
6 5 3 8 10 6 7 6 13 9 6 11 9 4 18 14 12 13 15 15 16 16 18 18 19 21 22 23 22 21 19 16
4 5 5 16 2 6 7 7 9 6 3 6 7 13 16 16 16 16 18 21 23 24 22 20 18 14 18 17 17 16 15 14
4 3 5 8 7 7 6 3 6 4 4 8 15 15 14 17 20 22 24 23 21 20 19 16 14 11 9 10 11 11 12 12
6 5 7 9 11 13 8 2 7 7 9 9 15 14 16 18 20 22 21 19 17 14 13 12 9 5 3 4 7 8 9 9
5 6 6 8 12 11 11 9 12 8 8 16 15 13 16 19 20 19 17 14 11 11 10 8 6 4 2 1 3 3 4 5
2 6 3 6 6 8 9 9 9 11 12 15 13 16 6 10 13 14 13 12 9 8 6 8 8 7 6 3 1 2 2 2
5 6 7 7 6 6 7 6 5 7 11 16 14 7 6 6 2 7 11 8 6 1 0 2 5 8 7 5 4 4 2 4

GFSFLT2_850_spd_105.txt.gz
Wind_Speed
13 15 15 15 15 13 8 3 9 11 12 15 13 14 26 33 37 41 37 35 29 28 30 36 23 21 20 19 18 19 17 15
10 11 17 17 11 15 13 13 16 12 11 11 5 10 14 18 31 36 35 39 30 20 25 25 23 22 22 21 18 17 16 15
9 14 14 12 11 11 16 15 15 7 3 16 21 12 13 17 19 33 32 35 34 22 21 27 24 26 28 25 20 18 17 15
15 13 17 18 19 17 11 14 12 15 5 8 10 11 10 12 16 23 27 35 41 40 19 24 26 23 23 19 21 20 19 16
12 8 5 10 15 15 18 14 14 12 5 10 10 9 7 10 20 21 22 28 29 34 36 19 24 22 23 28 27 17 16 13
4 9 11 17 18 14 16 12 14 12 9 15 12 11 10 10 13 22 23 26 26 23 30 35 27 24 27 33 32 26 19 16
1 7 11 10 13 15 14 17 15 10 10 5 16 13 13 14 12 10 15 20 23 25 28 31 26 27 26 31 32 31 28 23
12 8 10 13 8 9 8 13 14 18 18 12 19 15 15 14 13 13 14 15 17 16 18 22 25 24 23 19 23 25 20 31
13 11 10 13 14 10 13 14 14 15 16 13 6 7 9 12 11 12 14 16 16 16 16 18 19 20 22 26 23 24 16 19
13 7 10 4 7 11 4 11 8 16 3 7 11 11 7 6 10 11 10 13 12 18 19 19 17 19 21 22 22 20 13 16
10 12 8 13 4 1 2 1 17 17 14 4 8 7 8 5 5 10 9 12 14 13 14 17 17 14 17 20 20 19 18 15
4 7 16 7 12 12 6 9 9 7 13 6 4 6 5 9 8 6 9 10 11 10 11 12 14 14 15 20 19 19 22 18
5 4 2 8 11 11 14 4 10 10 6 5 4 6 6 15 14 9 9 8 9 10 10 10 10 12 20 18 20 21 20 18
5 4 8 12 4 5 6 6 8 7 3 2 3 6 9 8 8 10 13 11 11 13 14 14 13 14 18 18 18 18 16 14
5 2 5 9 9 6 5 3 7 7 4 4 5 11 8 9 11 13 16 19 20 21 21 19 18 14 12 14 13 13 12 11
1 4 8 8 8 9 6 5 6 8 11 13 22 14 12 13 17 22 23 22 21 20 18 17 14 12 12 8 7 7 7 7
3 5 6 7 7 8 9 7 8 10 17 16 10 17 19 19 20 20 19 17 16 15 16 15 13 10 8 6 4 6 5 4
5 13 6 7 6 6 7 8 8 10 13 12 14 18 17 17 17 16 15 12 12 13 13 14 13 11 9 7 7 7 7 8
4 6 5 8 6 5 7 6 7 10 12 21 19 12 11 8 11 13 11 9 5 4 6 7 8 8 7 4 5 9 12 9

GFSFLT2_850_spd_111.txt.gz
Wind_Speed
12 11 7 6 8 12 5 2 1 4 3 8 14 3 16 17 30 31 33 34 26 36 26 36 36 36 34 25 21 17 22 17
13 8 8 6 6 2 1 6 4 5 3 5 3 5 6 17 29 31 32 38 35 37 23 36 41 32 31 27 22 18 22 22
1 4 5 3 4 4 1 3 5 5 5 6 7 7 6 10 25 31 37 40 38 39 23 29 35 33 27 30 23 20 21 21
8 7 9 7 7 6 4 8 3 5 4 9 3 11 6 8 18 30 35 39 40 40 32 37 32 31 26 30 22 24 21 22
9 8 9 1 6 5 4 2 5 1 4 5 9 13 30 27 7 31 42 37 34 36 39 39 30 30 27 30 27 23 24 26
5 7 8 9 13 10 1 3 6 4 4 1 4 4 7 14 16 36 41 38 38 40 38 36 39 33 31 30 29 29 29 27
6 5 10 10 11 14 8 8 2 3 7 7 2 5 18 41 24 28 32 36 35 37 35 37 34 37 44 28 38 22 30 30
5 7 6 6 11 12 10 15 9 16 11 5 17 12 24 31 25 8 20 27 27 26 28 31 30 32 31 18 35 29 31 33
5 6 4 3 7 7 10 19 10 10 5 11 9 11 3 17 7 30 18 13 18 17 18 22 24 27 34 28 34 30 34 33
3 5 3 4 10 11 16 18 17 14 13 12 8 11 17 21 22 10 15 14 13 15 14 15 14 19 27 28 27 30 30 31
4 4 4 9 8 9 7 10 13 12 12 13 14 19 15 13 14 12 9 10 9 8 8 20 22 22 23 28 29 26 24 23
6 1 2 8 14 17 13 4 18 17 16 14 3 5 3 7 3 1 4 6 6 5 3 4 9 20 24 22 21 17 15 14
4 2 3 11 21 19 2 1 6 18 21 23 10 9 6 3 7 6 4 3 2 4 5 2 5 7 8 17 20 19 17 16
1 3 4 15 7 4 6 8 9 16 24 30 21 10 5 5 7 7 5 5 4 3 4 5 5 5 8 8 13 17 19 19
3 3 4 10 9 3 11 17 13 14 13 16 12 8 2 3 6 6 7 11 10 11 10 9 7 6 9 11 10 12 15 16
3 4 13 21 7 9 6 10 14 13 13 11 12 11 10 12 14 15 15 16 15 15 16 17 14 13 14 12 12 11 14 15
1 6 8 9 11 15 12 12 13 11 11 11 11 11 16 21 23 21 21 19 18 16 15 13 12 13 13 12 11 11 13 12
2 21 13 14 8 15 14 10 7 8 11 12 13 18 18 20 20 19 17 16 16 15 15 16 13 11 10 9 10 11 9 8
8 19 22 14 8 10 14 15 10 9 11 16 18 19 19 19 18 18 18 17 16 14 12 13 12 11 9 9 9 8 7 8

GFSFLT2_850_spd_114.txt.gz
Wind_Speed
9 8 15 6 5 7 6 2 3 4 5 9 8 2 14 23 25 27 38 35 34 32 36 37 38 33 26 23 25 23 26 25
7 10 11 12 7 3 2 5 4 4 4 7 4 10 10 10 16 26 30 37 33 35 32 35 36 36 29 24 24 21 22 26
3 1 9 1 1 3 4 4 5 3 6 7 9 8 15 22 27 31 34 40 39 39 43 32 35 38 35 29 28 25 21 24
6 7 4 3 2 4 5 5 2 4 5 6 7 4 12 12 30 33 37 42 44 38 37 35 35 36 39 33 31 27 24 22
9 7 9 6 6 4 2 2 3 5 5 5 10 9 11 14 9 25 31 35 38 42 34 35 34 42 39 37 33 32 25 23
5 7 2 4 9 5 4 3 3 5 2 4 12 13 23 24 7 5 22 38 41 44 39 39 38 43 40 36 35 34 25 26
9 9 3 1 5 13 5 5 5 3 5 4 6 9 17 30 34 24 9 17 34 36 43 43 43 43 40 39 39 36 27 27
1 7 7 1 14 13 9 6 6 6 9 6 8 9 22 22 15 32 31 15 15 32 39 42 41 41 37 37 33 29 29 32
4 5 4 7 6 12 12 11 3 9 5 8 10 17 21 18 8 8 22 28 4 18 31 37 42 42 41 40 36 36 30 36
3 4 2 1 8 17 18 13 7 5 6 12 14 22 24 22 17 18 21 7 4 14 19 26 29 34 35 33 33 26 34 31
3 1 2 3 6 4 3 7 7 5 4 10 13 15 20 14 14 12 12 10 7 8 7 6 23 23 27 31 31 30 30 27
3 2 5 4 8 16 2 3 6 9 7 2 5 3 2 9 9 8 7 5 5 8 5 2 10 12 19 22 25 24 25 21
4 1 4 2 17 16 3 5 3 10 5 2 3 5 5 2 6 7 7 7 7 7 6 4 5 14 11 14 23 24 24 24
1 4 6 2 6 5 4 3 8 10 6 8 10 8 3 1 4 6 7 5 6 7 8 9 7 6 9 11 13 12 14 14
5 5 3 5 3 9 13 17 12 11 10 7 5 4 3 3 2 4 6 8 8 9 12 12 10 7 6 6 8 13 19 18
2 3 5 5 3 7 11 14 13 11 10 7 6 3 4 5 7 9 8 8 9 11 12 13 11 8 9 9 6 6 11 11
1 3 2 5 5 19 19 15 14 12 8 7 7 7 6 7 10 11 13 13 9 11 13 15 12 11 11 10 8 9 11 12
5 16 9 14 17 18 15 13 9 9 10 11 10 12 12 13 13 14 13 14 15 16 13 12 11 10 10 10 9 7 8 8
7 23 12 13 20 15 8 9 6 7 8 13 12 11 14 14 13 13 13 11 14 15 14 12 10 9 9 8 8 8 8 8

GFSFLT2_850_spd_117.txt.gz
Wind_Speed
6 3 13 5 4 2 7 2 0 3 5 8 5 5 10 19 28 40 36 38 47 45 45 42 36 33 28 26 29 30 28 28
2 7 7 5 7 3 2 4 4 3 5 6 2 8 6 16 31 31 39 36 41 43 45 43 39 33 30 26 24 27 26 27
1 2 8 2 2 3 4 4 4 1 5 6 7 7 8 7 22 33 35 37 38 37 40 43 41 36 33 30 28 25 24 25
3 5 4 7 3 4 4 3 1 3 3 9 10 9 11 5 9 18 41 38 40 39 39 39 41 37 37 34 30 27 24 24
7 7 6 6 2 0 3 3 3 4 2 9 10 16 15 9 2 12 16 22 34 44 43 43 41 36 36 37 34 31 29 26
5 5 3 4 5 2 5 4 2 4 4 10 12 12 16 17 15 11 11 23 25 32 43 43 43 38 35 36 38 33 32 30
4 7 2 2 3 7 6 3 3 3 5 7 5 5 8 13 20 23 17 12 20 24 32 34 36 38 39 39 40 35 34 33
4 7 6 4 5 7 5 3 6 5 8 5 7 8 11 8 15 23 20 11 14 14 21 29 35 37 36 36 39 40 38 36
3 3 4 6 6 6 2 6 4 4 1 2 10 15 18 12 11 15 20 14 8 7 13 20 29 35 35 34 36 36 37 34
3 4 4 2 4 9 7 5 5 6 6 10 12 18 19 17 12 13 12 14 9 7 5 9 22 28 32 35 34 34 34 33
3 1 4 2 1 3 2 2 3 4 6 9 10 6 16 14 14 13 10 10 9 5 4 5 5 9 27 26 25 28 28 27
2 4 7 4 3 1 3 1 4 4 1 2 3 3 1 8 10 10 8 6 4 3 4 4 12 13 9 5 16 16 22 22
2 2 4 6 7 1 5 6 6 2 2 1 3 4 9 4 5 7 7 6 5 3 1 2 3 11 15 14 15 20 16 19
1 3 5 1 2 6 4 16 13 6 2 5 11 10 7 5 5 4 5 4 3 3 3 5 3 8 13 12 12 15 15 19
7 5 4 3 2 3 6 14 14 9 6 8 8 5 4 4 4 5 4 5 4 4 4 7 6 5 5 7 5 9 8 10
2 3 3 2 1 3 9 9 10 8 7 6 6 4 4 5 4 6 8 8 7 7 7 9 9 8 9 6 4 4 10 15
3 4 3 5 4 9 10 8 11 10 5 3 8 11 10 8 6 7 9 9 8 8 9 11 10 10 10 10 8 7 10 11
6 15 9 11 11 14 14 12 11 11 12 11 11 15 16 14 12 12 10 10 9 8 9 9 8 8 8 7 8 8 10 11
4 15 13 17 17 17 15 14 13 11 11 14 15 15 17 16 13 12 11 10 11 11 11 10 9 8 8 8 8 7 7 9

GFSFLT2_850_spd_123.txt.gz
Wind_Speed
7 6 8 6 9 2 0 0 3 2 4 5 14 11 1 24 27 29 31 32 33 30 32 36 34 33 30 26 26 25 25 26
6 8 5 3 8 4 4 3 2 4 3 4 15 14 7 10 26 31 26 27 32 34 30 36 34 32 30 28 25 26 28 27
6 6 7 4 4 2 4 3 2 3 3 5 8 10 9 11 20 25 24 28 35 37 37 37 36 35 33 29 27 26 27 27
2 4 4 3 3 8 6 2 1 3 1 4 4 7 10 3 11 19 23 27 36 39 38 38 40 37 36 32 30 27 23 24
4 2 3 1 2 2 0 0 8 6 1 4 6 8 10 8 6 7 19 25 30 31 35 39 41 41 38 35 32 29 27 24
4 2 1 1 3 2 3 4 6 7 2 1 6 8 10 11 7 1 9 18 25 29 30 33 37 40 38 37 35 35 31 29
0 5 1 2 3 5 1 3 4 2 4 1 5 5 9 11 10 10 7 6 13 19 22 23 28 33 35 36 37 37 34 33
3 3 7 5 5 5 4 3 2 1 3 2 3 5 7 12 13 17 12 3 4 16 16 21 25 22 25 30 32 33 35 33
4 4 6 10 6 2 3 4 3 7 2 6 2 6 9 10 11 12 11 9 3 8 13 16 16 17 22 27 29 30 32 31
4 3 8 3 3 4 1 2 4 4 8 7 6 4 5 7 7 9 8 8 8 5 9 11 12 14 17 16 18 22 24 23
4 6 5 4 4 5 7 7 7 8 8 10 7 2 3 4 5 5 5 5 4 4 1 6 11 14 13 11 13 13 17 24
3 4 6 2 2 2 2 7 15 12 15 16 11 3 3 3 4 4 5 5 3 2 2 2 7 8 7 3 9 12 20 17
4 5 5 1 6 5 8 2 12 18 18 18 9 3 8 6 5 5 5 6 6 6 6 5 2 2 8 9 11 9 9 8
2 4 5 7 5 5 2 7 7 6 7 9 12 15 9 5 5 5 6 7 8 9 10 8 6 3 7 9 4 5 4 5
5 2 2 7 5 6 6 2 3 6 8 11 12 10 7 5 5 5 7 9 9 10 12 12 12 10 6 2 1 2 2 2
2 2 9 9 9 7 5 6 10 7 5 6 8 9 8 7 7 8 8 9 9 9 10 12 13 13 14 10 7 4 2 3
5 7 4 10 10 7 8 9 10 9 7 6 7 8 9 8 7 8 9 11 11 10 12 14 13 14 14 15 13 11 11 9
5 4 3 2 14 12 13 12 10 10 10 9 8 9 11 11 10 11 10 10 10 11 12 13 13 13 14 14 13 12 11 11
3 3 9 6 14 15 13 12 12 10 10 12 13 11 11 12 13 13 13 13 12 13 13 13 13 13 13 13 12 12 14 15